sat.trackr.live / text

‹ back to catalog

STARLINK-2399

NORAD 47816 · 2021-018AF

PAYLOAD ACTIVE UNKNOWN

§ Identity

Operator
Country
US
Launch date
2021-03-11
Launch site
AFETR
Launch vehicle
Mass (kg)
RCS (m²)

Purposes: comms

External: N2YO · Heavens-Above · Gunter

§ Orbital elements

Epoch: 2026-09-08T21:57:40.410720Z

Period
94.01 min
Inclination
53.1591°
Eccentricity
0.0001221
Mean motion
15.31713044 rev/d
Perigee alt
469.9 km
Apogee alt
471.5 km
Semi-major
6,848.8 km
B*
1.5647e-4
RAAN
125.5093°
Arg perigee
92.1992°
Mean anomaly
267.9149°
Rev number
30,456

§ Raw data

STARLINK-23991 47816U 21018AF  26251.91505105  .00004495  00000+0  15647-3 0  99972 47816  53.1591 125.5093 0001221  92.1992 267.9149 15.31713044304560

JSON: /api/v1/satellites/47816 · /tle

For live sub-satellite position, see the globe view (requires WebGL).

§ Visibility from observer

Set your observer location to see the next 7 days of passes ≥ 10°. The values pass through the URL so the page stays shareable.

No JS? Fill the form by hand. The geolocation button needs JavaScript.